Time,TemperatureF,DewpointF,PressureIn,WindDirection,WindDirectionDegrees,WindSpeedMPH,WindSpeedGustMPH,Humidity,HourlyPrecipIn,Conditions,Clouds,dailyrainin,SoftwareType,DateUTC
2013-06-20 00:02:00,57.0,48.4,30.06,WNW,290,3.0,5.0,73,0.00,,,0.00,meteohub,2013-06-20 07:02:00,
2013-06-20 00:07:00,56.8,48.2,30.06,West,275,3.0,5.0,73,0.00,,,0.00,meteohub,2013-06-20 07:07:00,
2013-06-20 00:12:00,56.8,48.6,30.06,West,273,4.0,5.0,74,0.00,,,0.00,meteohub,2013-06-20 07:12:00,
2013-06-20 00:17:00,56.8,48.6,30.06,West,276,2.0,6.0,74,0.00,,,0.00,meteohub,2013-06-20 07:17:00,
2013-06-20 00:22:00,56.8,48.6,30.06,NW,314,2.0,7.0,74,0.00,,,0.00,meteohub,2013-06-20 07:22:00,
2013-06-20 00:27:00,56.8,48.6,30.05,WNW,283,1.0,7.0,74,0.00,,,0.00,meteohub,2013-06-20 07:27:00,
2013-06-20 00:32:00,56.8,48.6,30.05,NNW,338,1.0,7.0,74,0.00,,,0.00,meteohub,2013-06-20 07:32:00,
2013-06-20 00:37:00,57.0,48.7,30.05,WNW,284,2.0,5.0,74,0.00,,,0.00,meteohub,2013-06-20 07:37:00,
2013-06-20 00:42:00,57.0,48.7,30.05,West,280,4.0,5.0,74,0.00,,,0.00,meteohub,2013-06-20 07:42:00,
2013-06-20 00:47:00,56.8,48.6,30.05,WNW,303,2.0,5.0,74,0.00,,,0.00,meteohub,2013-06-20 07:47:00,
2013-06-20 00:52:00,56.7,48.4,30.05,NW,311,5.0,5.0,74,0.00,,,0.00,meteohub,2013-06-20 07:52:00,
2013-06-20 00:57:00,56.7,48.4,30.05,West,273,3.0,7.0,74,0.00,,,0.00,meteohub,2013-06-20 07:57:00,
2013-06-20 01:02:00,56.7,48.4,30.05,WNW,295,1.0,7.0,74,0.00,,,0.00,meteohub,2013-06-20 08:02:00,
2013-06-20 01:07:00,56.5,48.4,30.05,NW,304,2.0,7.0,74,0.00,,,0.00,meteohub,2013-06-20 08:07:00,
2013-06-20 01:12:00,56.5,48.4,30.05,WNW,299,4.0,6.0,74,0.00,,,0.00,meteohub,2013-06-20 08:12:00,
2013-06-20 01:17:00,56.3,48.2,30.05,West,260,7.0,7.0,74,0.00,,,0.00,meteohub,2013-06-20 08:17:00,
2013-06-20 01:22:00,56.1,48.4,30.05,West,278,2.0,9.0,75,0.00,,,0.00,meteohub,2013-06-20 08:22:00,
2013-06-20 01:27:00,56.1,48.4,30.05,NNE,17,1.0,9.0,75,0.00,,,0.00,meteohub,2013-06-20 08:27:00,
2013-06-20 01:32:00,55.9,48.2,30.05,West,267,4.0,9.0,75,0.00,,,0.00,meteohub,2013-06-20 08:32:00,
2013-06-20 01:37:00,55.9,48.6,30.04,NW,309,3.0,8.0,76,0.00,,,0.00,meteohub,2013-06-20 08:37:00,
2013-06-20 01:42:00,55.8,48.4,30.04,NW,304,5.0,8.0,76,0.00,,,0.00,meteohub,2013-06-20 08:42:00,
2013-06-20 01:47:00,55.9,48.6,30.04,WNW,283,3.0,8.0,76,0.00,,,0.00,meteohub,2013-06-20 08:47:00,
2013-06-20 01:52:00,55.9,48.6,30.04,NNW,344,5.0,6.0,76,0.00,,,0.00,meteohub,2013-06-20 08:52:00,
2013-06-20 01:57:00,55.8,48.4,30.04,NW,312,0.0,7.0,76,0.00,,,0.00,meteohub,2013-06-20 08:57:00,
2013-06-20 02:02:00,55.8,48.4,30.04,West,268,1.0,7.0,76,0.00,,,0.00,meteohub,2013-06-20 09:02:00,
2013-06-20 02:07:00,55.8,48.4,30.04,WNW,292,5.0,7.0,76,0.00,,,0.00,meteohub,2013-06-20 09:07:00,
2013-06-20 02:12:00,55.6,48.2,30.04,NW,326,2.0,6.0,76,0.00,,,0.00,meteohub,2013-06-20 09:12:00,
2013-06-20 02:17:00,55.6,48.2,30.04,SE,138,1.0,6.0,76,0.00,,,0.00,meteohub,2013-06-20 09:17:00,
2013-06-20 02:22:00,55.6,48.6,30.03,WNW,288,3.0,6.0,77,0.00,,,0.00,meteohub,2013-06-20 09:22:00,
2013-06-20 02:27:00,55.4,48.4,30.03,WNW,303,4.0,7.0,77,0.00,,,0.00,meteohub,2013-06-20 09:27:00,
2013-06-20 02:32:00,55.2,48.2,30.03,West,272,3.0,8.0,77,0.00,,,0.00,meteohub,2013-06-20 09:32:00,
2013-06-20 02:37:00,55.2,48.2,30.04,WNW,283,4.0,8.0,77,0.00,,,0.00,meteohub,2013-06-20 09:37:00,
2013-06-20 02:42:00,55.2,48.2,30.03,WNW,288,3.0,8.0,77,0.00,,,0.00,meteohub,2013-06-20 09:42:00,
2013-06-20 02:47:00,55.2,48.2,30.03,NW,325,2.0,7.0,77,0.00,,,0.00,meteohub,2013-06-20 09:47:00,
2013-06-20 02:52:00,55.2,48.2,30.03,West,280,5.0,6.0,77,0.00,,,0.00,meteohub,2013-06-20 09:52:00,
2013-06-20 02:57:00,55.2,48.2,30.03,NE,44,3.0,7.0,77,0.00,,,0.00,meteohub,2013-06-20 09:57:00,
2013-06-20 03:02:00,55.0,48.4,30.03,WSW,256,3.0,7.0,78,0.00,,,0.00,meteohub,2013-06-20 10:02:00,
2013-06-20 03:07:00,55.0,48.4,30.03,WNW,303,3.0,7.0,78,0.00,,,0.00,meteohub,2013-06-20 10:07:00,
2013-06-20 03:12:00,55.0,48.4,30.03,NNW,338,1.0,7.0,78,0.00,,,0.00,meteohub,2013-06-20 10:12:00,
2013-06-20 03:17:00,55.0,48.4,30.02,West,271,1.0,6.0,78,0.00,,,0.00,meteohub,2013-06-20 10:17:00,
2013-06-20 03:22:00,55.0,48.4,30.02,NW,309,0.0,4.0,78,0.00,,,0.00,meteohub,2013-06-20 10:22:00,
2013-06-20 03:27:00,55.0,48.4,30.02,West,276,0.0,5.0,78,0.00,,,0.00,meteohub,2013-06-20 10:27:00,
2013-06-20 03:32:00,55.0,48.4,30.02,NW,322,1.0,5.0,78,0.00,,,0.00,meteohub,2013-06-20 10:32:00,
2013-06-20 03:37:00,54.9,48.2,30.02,West,268,3.0,6.0,78,0.00,,,0.00,meteohub,2013-06-20 10:37:00,
2013-06-20 03:42:00,54.9,48.2,30.02,NW,317,1.0,7.0,78,0.00,,,0.00,meteohub,2013-06-20 10:42:00,
2013-06-20 03:47:00,54.9,48.2,30.02,NW,310,2.0,7.0,78,0.00,,,0.00,meteohub,2013-06-20 10:47:00,
2013-06-20 03:52:00,55.0,48.4,30.02,West,279,0.0,5.0,78,0.00,,,0.00,meteohub,2013-06-20 10:52:00,
2013-06-20 03:57:00,55.0,48.4,30.02,SW,226,1.0,5.0,78,0.00,,,0.00,meteohub,2013-06-20 10:57:00,
2013-06-20 04:02:00,55.0,48.4,30.02,WSW,253,0.0,5.0,78,0.00,,,0.00,meteohub,2013-06-20 11:02:00,
2013-06-20 04:07:00,55.0,48.4,30.01,West,276,2.0,4.0,78,0.00,,,0.00,meteohub,2013-06-20 11:07:00,
2013-06-20 04:12:00,55.0,48.4,30.02,WNW,290,0.0,3.0,78,0.00,,,0.00,meteohub,2013-06-20 11:12:00,
2013-06-20 04:17:00,55.0,48.4,30.02,WNW,284,2.0,3.0,78,0.00,,,0.00,meteohub,2013-06-20 11:17:00,
2013-06-20 04:22:00,55.0,48.6,30.01,West,279,2.0,4.0,79,0.00,,,0.00,meteohub,2013-06-20 11:22:00,
2013-06-20 04:27:00,55.0,48.6,30.01,WNW,299,0.0,5.0,79,0.00,,,0.00,meteohub,2013-06-20 11:27:00,
2013-06-20 04:32:00,55.0,48.6,30.01,WSW,244,3.0,5.0,79,0.00,,,0.00,meteohub,2013-06-20 11:32:00,
2013-06-20 04:37:00,55.0,48.4,30.01,WNW,283,2.0,4.0,78,0.00,,,0.00,meteohub,2013-06-20 11:37:00,
2013-06-20 04:42:00,54.9,48.6,30.01,WNW,295,2.0,4.0,79,0.00,,,0.00,meteohub,2013-06-20 11:42:00,
2013-06-20 04:47:00,54.9,48.6,30.01,WNW,292,3.0,4.0,79,0.00,,,0.00,meteohub,2013-06-20 11:47:00,
2013-06-20 04:52:00,54.9,48.6,30.01,WNW,298,4.0,5.0,79,0.00,,,0.00,meteohub,2013-06-20 11:52:00,
2013-06-20 04:57:00,54.7,48.4,30.01,West,278,3.0,5.0,79,0.00,,,0.00,meteohub,2013-06-20 11:57:00,
2013-06-20 05:02:00,54.9,48.6,30.01,WNW,295,2.0,5.0,79,0.00,,,0.00,meteohub,2013-06-20 12:02:00,
2013-06-20 05:07:00,54.9,48.6,30.01,West,278,1.0,5.0,79,0.00,,,0.00,meteohub,2013-06-20 12:07:00,
2013-06-20 05:12:00,54.9,48.6,30.01,WNW,286,1.0,4.0,79,0.00,,,0.00,meteohub,2013-06-20 12:12:00,
2013-06-20 05:17:00,54.9,48.6,30.01,WNW,283,2.0,4.0,79,0.00,,,0.00,meteohub,2013-06-20 12:17:00,
2013-06-20 05:22:00,55.0,48.6,30.02,WNW,294,1.0,3.0,79,0.00,,,0.00,meteohub,2013-06-20 12:22:00,
2013-06-20 05:27:00,55.0,48.4,30.02,WNW,295,3.0,4.0,78,0.00,,,0.00,meteohub,2013-06-20 12:27:00,
2013-06-20 05:32:00,55.0,48.4,30.02,NNE,25,2.0,4.0,78,0.00,,,0.00,meteohub,2013-06-20 12:32:00,
2013-06-20 05:37:00,55.0,48.4,30.02,WNW,296,1.0,4.0,78,0.00,,,0.00,meteohub,2013-06-20 12:37:00,
2013-06-20 05:42:00,55.0,48.4,30.02,West,275,2.0,4.0,78,0.00,,,0.00,meteohub,2013-06-20 12:42:00,
2013-06-20 05:47:00,55.0,48.4,30.02,WSW,250,2.0,4.0,78,0.00,,,0.00,meteohub,2013-06-20 12:47:00,
2013-06-20 05:52:00,55.0,48.4,30.02,WNW,290,1.0,4.0,78,0.00,,,0.00,meteohub,2013-06-20 12:52:00,
2013-06-20 05:57:00,55.0,48.4,30.02,SW,217,0.0,4.0,78,0.00,,,0.00,meteohub,2013-06-20 12:57:00,
2013-06-20 06:02:00,55.0,48.4,30.02,WSW,241,1.0,4.0,78,0.00,,,0.00,meteohub,2013-06-20 13:02:00,
2013-06-20 06:07:00,55.0,48.4,30.02,WNW,292,1.0,4.0,78,0.00,,,0.00,meteohub,2013-06-20 13:07:00,
2013-06-20 06:12:00,55.0,48.4,30.02,West,261,0.0,2.0,78,0.00,,,0.00,meteohub,2013-06-20 13:12:00,
2013-06-20 06:17:00,55.0,48.4,30.03,WSW,241,0.0,3.0,78,0.00,,,0.00,meteohub,2013-06-20 13:17:00,
2013-06-20 06:22:00,54.9,48.6,30.03,SW,226,1.0,3.0,79,0.00,,,0.00,meteohub,2013-06-20 13:22:00,
2013-06-20 06:27:00,54.9,48.6,30.03,SSW,196,0.0,2.0,79,0.00,,,0.00,meteohub,2013-06-20 13:27:00,
2013-06-20 06:32:00,54.7,48.4,30.03,SW,221,0.0,2.0,79,0.00,,,0.00,meteohub,2013-06-20 13:32:00,
2013-06-20 06:37:00,54.7,48.6,30.03,SSW,203,0.0,2.0,80,0.00,,,0.00,meteohub,2013-06-20 13:37:00,
2013-06-20 06:42:00,54.9,48.7,30.03,WSW,244,0.0,2.0,80,0.00,,,0.00,meteohub,2013-06-20 13:42:00,
2013-06-20 06:47:00,54.9,48.6,30.03,SSW,206,2.0,2.0,79,0.00,,,0.00,meteohub,2013-06-20 13:47:00,
2013-06-20 06:52:00,55.0,48.6,30.03,WSW,253,0.0,2.0,79,0.00,,,0.00,meteohub,2013-06-20 13:52:00,
2013-06-20 06:57:00,55.0,48.6,30.03,WSW,252,0.0,3.0,79,0.00,,,0.00,meteohub,2013-06-20 13:57:00,
2013-06-20 07:02:00,55.0,48.6,30.03,SW,221,2.0,3.0,79,0.00,,,0.00,meteohub,2013-06-20 14:02:00,
2013-06-20 07:07:00,55.0,48.6,30.03,WSW,248,0.0,3.0,79,0.00,,,0.00,meteohub,2013-06-20 14:07:00,
2013-06-20 07:12:00,55.4,48.9,30.03,SSW,202,2.0,3.0,79,0.00,,,0.00,meteohub,2013-06-20 14:12:00,
2013-06-20 07:17:00,55.8,49.3,30.03,SW,234,0.0,3.0,79,0.00,,,0.00,meteohub,2013-06-20 14:17:00,
2013-06-20 07:22:00,56.1,49.3,30.03,SW,232,0.0,3.0,78,0.00,,,0.00,meteohub,2013-06-20 14:22:00,
2013-06-20 07:27:00,56.7,49.5,30.03,SW,230,2.0,3.0,77,0.00,,,0.00,meteohub,2013-06-20 14:27:00,
2013-06-20 07:32:00,57.4,49.8,30.03,SSE,154,1.0,2.0,76,0.00,,,0.00,meteohub,2013-06-20 14:32:00,
2013-06-20 07:37:00,57.7,50.2,30.03,SSE,153,0.0,2.0,76,0.00,,,0.00,meteohub,2013-06-20 14:37:00,
2013-06-20 07:42:00,59.2,51.3,30.03,SW,218,0.0,2.0,75,0.00,,,0.00,meteohub,2013-06-20 14:42:00,
2013-06-20 07:47:00,59.2,50.5,30.03,SSW,206,1.0,1.0,73,0.00,,,0.00,meteohub,2013-06-20 14:47:00,
2013-06-20 07:52:00,59.4,51.4,30.03,SW,217,1.0,4.0,75,0.00,,,0.00,meteohub,2013-06-20 14:52:00,
2013-06-20 07:57:00,59.5,51.6,30.03,ESE,105,1.0,4.0,75,0.00,,,0.00,meteohub,2013-06-20 14:57:00,
2013-06-20 08:02:00,59.7,51.8,30.03,SW,229,0.0,4.0,75,0.00,,,0.00,meteohub,2013-06-20 15:02:00,
2013-06-20 08:07:00,60.1,51.8,30.03,South,182,2.0,3.0,74,0.00,,,0.00,meteohub,2013-06-20 15:07:00,
2013-06-20 08:12:00,60.6,52.3,30.03,SW,224,1.0,3.0,74,0.00,,,0.00,meteohub,2013-06-20 15:12:00,
2013-06-20 08:17:00,61.0,52.3,30.03,South,171,1.0,3.0,73,0.00,,,0.00,meteohub,2013-06-20 15:17:00,
2013-06-20 08:22:00,61.2,52.0,30.03,SSE,149,1.0,3.0,72,0.00,,,0.00,meteohub,2013-06-20 15:22:00,
2013-06-20 08:27:00,61.2,51.6,30.03,ESE,117,2.0,3.0,71,0.00,,,0.00,meteohub,2013-06-20 15:27:00,
2013-06-20 08:32:00,61.0,51.4,30.03,ENE,78,3.0,3.0,71,0.00,,,0.00,meteohub,2013-06-20 15:32:00,
2013-06-20 08:37:00,60.6,50.7,30.03,ENE,67,1.0,4.0,70,0.00,,,0.00,meteohub,2013-06-20 15:37:00,
2013-06-20 08:42:00,60.8,51.3,30.03,East,82,1.0,5.0,71,0.00,,,0.00,meteohub,2013-06-20 15:42:00,
2013-06-20 08:47:00,60.6,50.7,30.03,SSE,157,1.0,6.0,70,0.00,,,0.00,meteohub,2013-06-20 15:47:00,
2013-06-20 08:52:00,61.2,51.6,30.03,SE,130,2.0,6.0,71,0.00,,,0.00,meteohub,2013-06-20 15:52:00,
2013-06-20 08:57:00,61.3,51.1,30.02,East,84,3.0,6.0,69,0.00,,,0.00,meteohub,2013-06-20 15:57:00,
2013-06-20 09:02:00,61.5,51.6,30.03,NNE,24,1.0,5.0,70,0.00,,,0.00,meteohub,2013-06-20 16:02:00,
2013-06-20 09:07:00,61.9,51.6,30.03,ESE,111,3.0,4.0,69,0.00,,,0.00,meteohub,2013-06-20 16:07:00,
2013-06-20 09:12:00,61.9,52.0,30.02,ENE,64,0.0,6.0,70,0.00,,,0.00,meteohub,2013-06-20 16:12:00,
2013-06-20 09:17:00,61.9,51.6,30.02,SSE,153,1.0,6.0,69,0.00,,,0.00,meteohub,2013-06-20 16:17:00,
2013-06-20 09:22:00,62.2,52.3,30.02,East,81,0.0,6.0,70,0.00,,,0.00,meteohub,2013-06-20 16:22:00,
2013-06-20 09:27:00,63.0,51.8,30.02,ENE,69,1.0,6.0,67,0.00,,,0.00,meteohub,2013-06-20 16:27:00,
2013-06-20 09:32:00,63.7,52.2,30.02,South,176,2.0,3.0,66,0.00,,,0.00,meteohub,2013-06-20 16:32:00,
2013-06-20 09:37:00,63.9,52.3,30.02,SSE,150,1.0,3.0,66,0.00,,,0.00,meteohub,2013-06-20 16:37:00,
2013-06-20 09:42:00,64.0,52.0,30.02,ESE,109,1.0,3.0,65,0.00,,,0.00,meteohub,2013-06-20 16:42:00,
2013-06-20 09:47:00,64.2,52.2,30.02,SSW,205,3.0,4.0,65,0.00,,,0.00,meteohub,2013-06-20 16:47:00,
2013-06-20 09:52:00,64.6,52.5,30.02,ENE,76,2.0,5.0,65,0.00,,,0.00,meteohub,2013-06-20 16:52:00,
2013-06-20 09:57:00,64.4,52.3,30.02,East,88,3.0,6.0,65,0.00,,,0.00,meteohub,2013-06-20 16:57:00,
2013-06-20 10:02:00,63.9,52.3,30.02,SE,137,2.0,6.0,66,0.00,,,0.00,meteohub,2013-06-20 17:02:00,
2013-06-20 10:07:00,64.4,52.9,30.01,South,175,0.0,8.0,66,0.00,,,0.00,meteohub,2013-06-20 17:07:00,
2013-06-20 10:12:00,65.1,53.1,30.01,SW,232,2.0,8.0,65,0.00,,,0.00,meteohub,2013-06-20 17:12:00,
2013-06-20 10:17:00,66.0,53.4,30.01,NNE,27,5.0,5.0,64,0.00,,,0.00,meteohub,2013-06-20 17:17:00,
2013-06-20 10:22:00,65.8,53.2,30.01,East,100,2.0,6.0,64,0.00,,,0.00,meteohub,2013-06-20 17:22:00,
2013-06-20 10:27:00,66.2,53.6,30.01,NE,55,2.0,6.0,64,0.00,,,0.00,meteohub,2013-06-20 17:27:00,
2013-06-20 10:32:00,66.7,54.1,30.01,East,80,5.0,6.0,64,0.00,,,0.00,meteohub,2013-06-20 17:32:00,
2013-06-20 10:37:00,66.0,53.4,30.01,ENE,76,4.0,7.0,64,0.00,,,0.00,meteohub,2013-06-20 17:37:00,
2013-06-20 10:42:00,65.8,53.2,30.01,NE,44,3.0,7.0,64,0.00,,,0.00,meteohub,2013-06-20 17:42:00,
2013-06-20 10:47:00,66.0,52.7,30.01,NW,304,2.0,7.0,62,0.00,,,0.00,meteohub,2013-06-20 17:47:00,
2013-06-20 10:52:00,66.7,50.5,30.01,WNW,292,3.0,5.0,56,0.00,,,0.00,meteohub,2013-06-20 17:52:00,
2013-06-20 10:57:00,67.1,49.8,30.01,NW,321,6.0,7.0,54,0.00,,,0.00,meteohub,2013-06-20 17:57:00,
2013-06-20 11:02:00,67.5,50.2,30.01,NNW,342,5.0,7.0,54,0.00,,,0.00,meteohub,2013-06-20 18:02:00,
2013-06-20 11:07:00,67.1,49.8,30.01,WNW,299,3.0,7.0,54,0.00,,,0.00,meteohub,2013-06-20 18:07:00,
2013-06-20 11:12:00,66.7,50.0,30.01,NW,304,3.0,8.0,55,0.00,,,0.00,meteohub,2013-06-20 18:12:00,
2013-06-20 11:17:00,66.0,49.8,30.01,ENE,74,8.0,8.0,56,0.00,,,0.00,meteohub,2013-06-20 18:17:00,
2013-06-20 11:22:00,66.0,51.3,30.01,West,261,3.0,8.0,59,0.00,,,0.00,meteohub,2013-06-20 18:22:00,
2013-06-20 11:27:00,65.8,50.7,30.01,West,267,7.0,9.0,58,0.00,,,0.00,meteohub,2013-06-20 18:27:00,
2013-06-20 11:32:00,65.7,51.4,30.01,WSW,255,5.0,10.0,60,0.00,,,0.00,meteohub,2013-06-20 18:32:00,
2013-06-20 11:37:00,65.8,51.6,30.02,WSW,257,2.0,10.0,60,0.00,,,0.00,meteohub,2013-06-20 18:37:00,
2013-06-20 11:42:00,65.8,51.6,30.01,WNW,292,3.0,10.0,60,0.00,,,0.00,meteohub,2013-06-20 18:42:00,
2013-06-20 11:47:00,65.8,51.1,30.01,West,265,8.0,11.0,59,0.00,,,0.00,meteohub,2013-06-20 18:47:00,
2013-06-20 11:52:00,66.2,52.0,30.01,NW,324,6.0,11.0,60,0.00,,,0.00,meteohub,2013-06-20 18:52:00,
2013-06-20 11:57:00,65.8,51.1,30.01,WNW,289,4.0,11.0,59,0.00,,,0.00,meteohub,2013-06-20 18:57:00,
2013-06-20 12:02:00,66.6,51.8,30.01,North,5,6.0,10.0,59,0.00,,,0.00,meteohub,2013-06-20 19:02:00,
2013-06-20 12:07:00,67.5,51.6,30.01,NNW,331,6.0,9.0,57,0.00,,,0.00,meteohub,2013-06-20 19:07:00,
2013-06-20 12:12:00,66.9,50.7,30.01,NW,307,8.0,9.0,56,0.00,,,0.00,meteohub,2013-06-20 19:12:00,
2013-06-20 12:17:00,66.4,50.7,30.01,WNW,288,7.0,9.0,57,0.00,,,0.00,meteohub,2013-06-20 19:17:00,
2013-06-20 12:22:00,66.2,50.5,30.01,NW,325,5.0,9.0,57,0.00,,,0.00,meteohub,2013-06-20 19:22:00,
2013-06-20 12:27:00,66.2,50.9,30.01,WNW,287,4.0,12.0,58,0.00,,,0.00,meteohub,2013-06-20 19:27:00,
2013-06-20 12:32:00,66.4,51.1,30.01,WNW,292,7.0,12.0,58,0.00,,,0.00,meteohub,2013-06-20 19:32:00,
2013-06-20 12:37:00,67.3,51.4,30.01,NNW,341,5.0,12.0,57,0.00,,,0.00,meteohub,2013-06-20 19:37:00,
2013-06-20 12:42:00,67.8,51.1,30.01,NNW,340,4.0,10.0,55,0.00,,,0.00,meteohub,2013-06-20 19:42:00,
2013-06-20 12:47:00,67.6,50.9,30.01,West,280,4.0,10.0,55,0.00,,,0.00,meteohub,2013-06-20 19:47:00,
2013-06-20 12:52:00,67.6,51.4,30.01,NNW,336,7.0,11.0,56,0.00,,,0.00,meteohub,2013-06-20 19:52:00,
2013-06-20 12:57:00,67.8,51.6,30.01,West,261,4.0,12.0,56,0.00,,,0.00,meteohub,2013-06-20 19:57:00,
2013-06-20 13:02:00,67.8,50.5,30.01,NNW,327,8.0,12.0,54,0.00,,,0.00,meteohub,2013-06-20 20:02:00,
2013-06-20 13:07:00,67.8,51.6,30.01,NW,308,3.0,11.0,56,0.00,,,0.00,meteohub,2013-06-20 20:07:00,
2013-06-20 13:12:00,68.2,51.4,30.01,WSW,248,3.0,12.0,55,0.00,,,0.00,meteohub,2013-06-20 20:12:00,
2013-06-20 13:17:00,68.2,51.8,30.01,East,82,3.0,12.0,56,0.00,,,0.00,meteohub,2013-06-20 20:17:00,
2013-06-20 13:22:00,68.5,52.2,30.01,West,261,3.0,12.0,56,0.00,,,0.00,meteohub,2013-06-20 20:22:00,
2013-06-20 13:27:00,68.4,51.6,30.01,NW,315,6.0,10.0,55,0.00,,,0.00,meteohub,2013-06-20 20:27:00,
2013-06-20 13:32:00,67.8,51.6,30.00,West,267,7.0,9.0,56,0.00,,,0.00,meteohub,2013-06-20 20:32:00,
2013-06-20 13:37:00,68.2,51.4,30.00,NW,321,12.0,13.0,55,0.00,,,0.00,meteohub,2013-06-20 20:37:00,
2013-06-20 13:42:00,67.6,50.9,30.00,WNW,284,4.0,13.0,55,0.00,,,0.00,meteohub,2013-06-20 20:42:00,
2013-06-20 13:47:00,66.7,50.5,30.00,West,271,6.0,15.0,56,0.00,,,0.00,meteohub,2013-06-20 20:47:00,
2013-06-20 13:52:00,65.7,50.5,30.00,NW,325,11.0,16.0,58,0.00,,,0.00,meteohub,2013-06-20 20:52:00,
2013-06-20 13:57:00,65.5,50.7,30.00,WSW,252,12.0,16.0,59,0.00,,,0.00,meteohub,2013-06-20 20:57:00,
2013-06-20 14:02:00,66.6,51.3,30.00,NW,306,8.0,16.0,58,0.00,,,0.00,meteohub,2013-06-20 21:02:00,
2013-06-20 14:07:00,66.4,50.7,30.00,West,279,6.0,15.0,57,0.00,,,0.00,meteohub,2013-06-20 21:07:00,
2013-06-20 14:12:00,66.6,51.3,30.00,West,272,6.0,16.0,58,0.00,,,0.00,meteohub,2013-06-20 21:12:00,
2013-06-20 14:17:00,66.6,51.8,30.00,WNW,286,4.0,16.0,59,0.00,,,0.00,meteohub,2013-06-20 21:17:00,
2013-06-20 14:22:00,66.2,50.9,30.01,NW,318,14.0,17.0,58,0.00,,,0.00,meteohub,2013-06-20 21:22:00,
2013-06-20 14:27:00,64.9,50.2,30.00,West,269,2.0,17.0,59,0.00,,,0.00,meteohub,2013-06-20 21:27:00,
2013-06-20 14:32:00,65.1,51.3,30.00,WNW,301,4.0,17.0,61,0.00,,,0.00,meteohub,2013-06-20 21:32:00,
2013-06-20 14:37:00,65.1,51.3,30.00,NW,324,6.0,15.0,61,0.00,,,0.00,meteohub,2013-06-20 21:37:00,
2013-06-20 14:42:00,64.9,51.6,30.00,West,268,10.0,14.0,62,0.00,,,0.00,meteohub,2013-06-20 21:42:00,
2013-06-20 14:47:00,65.1,51.8,29.99,NW,311,11.0,14.0,62,0.00,,,0.00,meteohub,2013-06-20 21:47:00,
2013-06-20 14:52:00,65.1,52.2,29.99,West,260,6.0,16.0,63,0.00,,,0.00,meteohub,2013-06-20 21:52:00,
2013-06-20 14:57:00,65.1,51.8,29.99,NNW,333,9.0,16.0,62,0.00,,,0.00,meteohub,2013-06-20 21:57:00,
2013-06-20 15:02:00,64.8,51.4,29.99,NW,313,9.0,21.0,62,0.00,,,0.00,meteohub,2013-06-20 22:02:00,
2013-06-20 15:07:00,65.1,51.8,29.99,NW,313,3.0,21.0,62,0.00,,,0.00,meteohub,2013-06-20 22:07:00,
2013-06-20 15:12:00,65.1,51.8,29.99,WNW,290,14.0,21.0,62,0.00,,,0.00,meteohub,2013-06-20 22:12:00,
2013-06-20 15:17:00,64.9,52.0,29.99,West,272,3.0,19.0,63,0.00,,,0.00,meteohub,2013-06-20 22:17:00,
2013-06-20 15:22:00,65.7,51.8,29.99,NNW,329,6.0,19.0,61,0.00,,,0.00,meteohub,2013-06-20 22:22:00,
2013-06-20 15:27:00,65.5,51.6,29.99,WNW,286,13.0,19.0,61,0.00,,,0.00,meteohub,2013-06-20 22:27:00,
2013-06-20 15:32:00,65.3,52.0,29.99,West,273,6.0,16.0,62,0.00,,,0.00,meteohub,2013-06-20 22:32:00,
2013-06-20 15:37:00,65.5,51.6,29.99,SSW,203,3.0,16.0,61,0.00,,,0.00,meteohub,2013-06-20 22:37:00,
2013-06-20 15:42:00,65.5,51.6,29.99,WNW,296,11.0,16.0,61,0.00,,,0.00,meteohub,2013-06-20 22:42:00,
2013-06-20 15:47:00,65.8,52.0,29.99,WNW,290,5.0,13.0,61,0.00,,,0.00,meteohub,2013-06-20 22:47:00,
2013-06-20 15:52:00,66.9,52.5,29.99,NNW,344,3.0,13.0,60,0.00,,,0.00,meteohub,2013-06-20 22:52:00,
2013-06-20 15:57:00,67.3,52.0,29.99,NNE,15,3.0,14.0,58,0.00,,,0.00,meteohub,2013-06-20 22:57:00,
2013-06-20 16:02:00,66.7,51.4,29.99,NNW,346,8.0,17.0,58,0.00,,,0.00,meteohub,2013-06-20 23:02:00,
2013-06-20 16:07:00,66.7,51.4,29.99,WNW,286,14.0,17.0,58,0.00,,,0.00,meteohub,2013-06-20 23:07:00,
2013-06-20 16:12:00,66.7,51.4,29.99,NW,313,10.0,15.0,58,0.00,,,0.00,meteohub,2013-06-20 23:12:00,
2013-06-20 16:17:00,66.6,51.3,29.99,WNW,290,9.0,15.0,58,0.00,,,0.00,meteohub,2013-06-20 23:17:00,
2013-06-20 16:22:00,65.8,51.1,29.99,WNW,300,7.0,15.0,59,0.00,,,0.00,meteohub,2013-06-20 23:22:00,
2013-06-20 16:27:00,66.0,51.3,29.99,WNW,295,9.0,15.0,59,0.00,,,0.00,meteohub,2013-06-20 23:27:00,
2013-06-20 16:32:00,65.8,50.7,29.99,NW,306,9.0,15.0,58,0.00,,,0.00,meteohub,2013-06-20 23:32:00,
2013-06-20 16:37:00,66.2,50.9,29.99,WNW,303,5.0,15.0,58,0.00,,,0.00,meteohub,2013-06-20 23:37:00,
2013-06-20 16:42:00,66.4,51.1,29.99,NW,306,10.0,15.0,58,0.00,,,0.00,meteohub,2013-06-20 23:42:00,
2013-06-20 16:47:00,65.7,50.9,29.99,NW,311,4.0,15.0,59,0.00,,,0.00,meteohub,2013-06-20 23:47:00,
2013-06-20 16:52:00,65.7,50.9,29.99,West,280,9.0,15.0,59,0.00,,,0.00,meteohub,2013-06-20 23:52:00,
2013-06-20 16:57:00,65.5,51.3,29.99,NW,306,5.0,15.0,60,0.00,,,0.00,meteohub,2013-06-20 23:57:00,
2013-06-20 17:02:00,65.8,51.1,29.99,NW,306,5.0,14.0,59,0.00,,,0.00,meteohub,2013-06-21 00:02:00,
2013-06-20 17:07:00,65.8,50.7,29.99,West,277,13.0,17.0,58,0.00,,,0.00,meteohub,2013-06-21 00:07:00,
2013-06-20 17:12:00,65.8,50.7,29.99,West,279,8.0,17.0,58,0.00,,,0.00,meteohub,2013-06-21 00:12:00,
2013-06-20 17:17:00,65.7,50.5,29.99,West,277,4.0,17.0,58,0.00,,,0.00,meteohub,2013-06-21 00:17:00,
2013-06-20 17:22:00,65.7,50.5,29.99,WNW,302,4.0,13.0,58,0.00,,,0.00,meteohub,2013-06-21 00:22:00,
2013-06-20 17:27:00,65.1,50.4,29.99,NW,311,7.0,13.0,59,0.00,,,0.00,meteohub,2013-06-21 00:27:00,
2013-06-20 17:32:00,65.1,50.4,29.99,WNW,299,7.0,13.0,59,0.00,,,0.00,meteohub,2013-06-21 00:32:00,
2013-06-20 17:37:00,64.9,50.2,29.99,NW,306,7.0,13.0,59,0.00,,,0.00,meteohub,2013-06-21 00:37:00,
2013-06-20 17:42:00,64.8,51.1,29.99,NW,308,7.0,13.0,61,0.00,,,0.00,meteohub,2013-06-21 00:42:00,
2013-06-20 17:47:00,63.7,50.9,29.99,NW,311,8.0,14.0,63,0.00,,,0.00,meteohub,2013-06-21 00:47:00,
2013-06-20 17:52:00,63.7,50.4,29.99,NW,322,15.0,15.0,62,0.00,,,0.00,meteohub,2013-06-21 00:52:00,
2013-06-20 17:57:00,63.7,50.9,29.99,NE,34,4.0,15.0,63,0.00,,,0.00,meteohub,2013-06-21 00:57:00,
2013-06-20 18:02:00,63.7,50.9,29.99,WNW,283,7.0,15.0,63,0.00,,,0.00,meteohub,2013-06-21 01:02:00,
2013-06-20 18:07:00,63.0,51.1,29.99,WNW,299,11.0,15.0,65,0.00,,,0.00,meteohub,2013-06-21 01:07:00,
2013-06-20 18:12:00,63.0,51.1,29.99,WSW,238,11.0,14.0,65,0.00,,,0.00,meteohub,2013-06-21 01:12:00,
2013-06-20 18:17:00,62.4,50.5,29.99,NW,313,12.0,14.0,65,0.00,,,0.00,meteohub,2013-06-21 01:17:00,
2013-06-20 18:22:00,62.2,50.7,29.98,NE,37,8.0,17.0,66,0.00,,,0.00,meteohub,2013-06-21 01:22:00,
2013-06-20 18:27:00,61.9,50.4,29.99,NNW,336,5.0,20.0,66,0.00,,,0.00,meteohub,2013-06-21 01:27:00,
2013-06-20 18:32:00,62.1,50.5,29.98,NNE,17,6.0,20.0,66,0.00,,,0.00,meteohub,2013-06-21 01:32:00,
2013-06-20 18:37:00,62.6,50.2,29.98,NW,321,9.0,20.0,64,0.00,,,0.00,meteohub,2013-06-21 01:37:00,
2013-06-20 18:42:00,62.2,50.4,29.98,WNW,283,5.0,17.0,65,0.00,,,0.00,meteohub,2013-06-21 01:42:00,
2013-06-20 18:47:00,62.1,50.5,29.98,WSW,252,13.0,18.0,66,0.00,,,0.00,meteohub,2013-06-21 01:47:00,
2013-06-20 18:52:00,61.9,50.4,29.98,NW,313,6.0,18.0,66,0.00,,,0.00,meteohub,2013-06-21 01:52:00,
2013-06-20 18:57:00,61.5,50.5,29.98,NW,326,4.0,18.0,67,0.00,,,0.00,meteohub,2013-06-21 01:57:00,
2013-06-20 19:02:00,61.3,50.4,29.98,WNW,292,3.0,15.0,67,0.00,,,0.00,meteohub,2013-06-21 02:02:00,
2013-06-20 19:07:00,61.3,50.7,29.98,NW,313,16.0,16.0,68,0.00,,,0.00,meteohub,2013-06-21 02:07:00,
2013-06-20 19:12:00,61.2,50.5,29.98,WNW,287,8.0,16.0,68,0.00,,,0.00,meteohub,2013-06-21 02:12:00,
2013-06-20 19:17:00,61.2,50.5,29.98,NE,43,12.0,17.0,68,0.00,,,0.00,meteohub,2013-06-21 02:17:00,
2013-06-20 19:22:00,61.2,50.5,29.98,NW,321,9.0,17.0,68,0.00,,,0.00,meteohub,2013-06-21 02:22:00,
2013-06-20 19:27:00,61.2,50.5,29.99,WNW,292,7.0,16.0,68,0.00,,,0.00,meteohub,2013-06-21 02:27:00,
2013-06-20 19:32:00,61.0,50.4,29.99,WNW,283,5.0,15.0,68,0.00,,,0.00,meteohub,2013-06-21 02:32:00,
2013-06-20 19:37:00,60.6,50.0,29.99,WNW,291,3.0,15.0,68,0.00,,,0.00,meteohub,2013-06-21 02:37:00,
2013-06-20 19:42:00,60.3,49.6,29.99,West,273,10.0,13.0,68,0.00,,,0.00,meteohub,2013-06-21 02:42:00,
2013-06-20 19:47:00,60.1,49.8,29.99,WNW,290,5.0,16.0,69,0.00,,,0.00,meteohub,2013-06-21 02:47:00,
2013-06-20 19:52:00,59.9,50.2,29.99,WNW,288,10.0,16.0,70,0.00,,,0.00,meteohub,2013-06-21 02:52:00,
2013-06-20 19:57:00,59.4,49.6,29.99,NW,306,3.0,16.0,70,0.00,,,0.00,meteohub,2013-06-21 02:57:00,
2013-06-20 20:02:00,58.8,49.5,30.00,ENE,59,3.0,13.0,71,0.00,,,0.00,meteohub,2013-06-21 03:02:00,
2013-06-20 20:07:00,58.6,49.6,30.00,WNW,303,10.0,14.0,72,0.00,,,0.00,meteohub,2013-06-21 03:07:00,
2013-06-20 20:12:00,58.5,49.5,30.00,NW,320,9.0,14.0,72,0.00,,,0.00,meteohub,2013-06-21 03:12:00,
2013-06-20 20:17:00,58.3,49.3,30.00,West,272,9.0,13.0,72,0.00,,,0.00,meteohub,2013-06-21 03:17:00,
2013-06-20 20:22:00,58.3,49.3,29.99,NW,310,5.0,14.0,72,0.00,,,0.00,meteohub,2013-06-21 03:22:00,
2013-06-20 20:27:00,58.5,49.5,30.00,WNW,298,9.0,14.0,72,0.00,,,0.00,meteohub,2013-06-21 03:27:00,
2013-06-20 20:32:00,58.3,49.3,30.00,NNW,329,10.0,14.0,72,0.00,,,0.00,meteohub,2013-06-21 03:32:00,
2013-06-20 20:37:00,57.9,48.9,30.00,West,276,8.0,12.0,72,0.00,,,0.00,meteohub,2013-06-21 03:37:00,
2013-06-20 20:42:00,57.7,49.1,30.00,WNW,303,6.0,17.0,73,0.00,,,0.00,meteohub,2013-06-21 03:42:00,
2013-06-20 20:47:00,57.6,49.3,30.01,NNW,328,2.0,17.0,74,0.00,,,0.00,meteohub,2013-06-21 03:47:00,
2013-06-20 20:52:00,57.4,49.1,30.00,WNW,283,3.0,17.0,74,0.00,,,0.00,meteohub,2013-06-21 03:52:00,
2013-06-20 20:57:00,57.4,49.1,30.01,NW,313,10.0,12.0,74,0.00,,,0.00,meteohub,2013-06-21 03:57:00,
2013-06-20 21:02:00,57.0,49.1,30.01,NNW,331,4.0,12.0,75,0.00,,,0.00,meteohub,2013-06-21 04:02:00,
2013-06-20 21:07:00,57.0,49.1,30.00,West,273,1.0,12.0,75,0.00,,,0.00,meteohub,2013-06-21 04:07:00,
2013-06-20 21:12:00,57.0,49.1,30.01,NW,308,1.0,12.0,75,0.00,,,0.00,meteohub,2013-06-21 04:12:00,
2013-06-20 21:17:00,56.8,48.9,30.00,WNW,286,5.0,12.0,75,0.00,,,0.00,meteohub,2013-06-21 04:17:00,
2013-06-20 21:22:00,56.8,48.9,30.01,WSW,257,5.0,9.0,75,0.00,,,0.00,meteohub,2013-06-21 04:22:00,
2013-06-20 21:27:00,56.7,48.7,30.01,West,271,5.0,10.0,75,0.00,,,0.00,meteohub,2013-06-21 04:27:00,
2013-06-20 21:32:00,56.7,49.1,30.01,West,280,6.0,10.0,76,0.00,,,0.00,meteohub,2013-06-21 04:32:00,
2013-06-20 21:37:00,56.7,49.1,30.01,WNW,291,4.0,10.0,76,0.00,,,0.00,meteohub,2013-06-21 04:37:00,
2013-06-20 21:42:00,56.5,48.9,30.01,NW,306,4.0,10.0,76,0.00,,,0.00,meteohub,2013-06-21 04:42:00,
2013-06-20 21:47:00,56.5,49.3,30.01,West,276,3.0,10.0,77,0.00,,,0.00,meteohub,2013-06-21 04:47:00,
2013-06-20 21:52:00,56.3,49.1,30.01,West,261,2.0,10.0,77,0.00,,,0.00,meteohub,2013-06-21 04:52:00,
2013-06-20 21:57:00,56.3,49.1,30.02,WSW,250,3.0,10.0,77,0.00,,,0.00,meteohub,2013-06-21 04:57:00,
2013-06-20 22:02:00,56.1,48.9,30.02,WNW,285,4.0,10.0,77,0.00,,,0.00,meteohub,2013-06-21 05:02:00,
2013-06-20 22:07:00,55.9,49.1,30.02,WNW,296,8.0,11.0,78,0.00,,,0.00,meteohub,2013-06-21 05:07:00,
2013-06-20 22:12:00,55.8,48.9,30.02,West,280,7.0,11.0,78,0.00,,,0.00,meteohub,2013-06-21 05:12:00,
2013-06-20 22:17:00,55.8,48.9,30.02,WSW,237,9.0,12.0,78,0.00,,,0.00,meteohub,2013-06-21 05:17:00,
2013-06-20 22:22:00,55.6,48.9,30.02,WNW,294,6.0,13.0,78,0.00,,,0.00,meteohub,2013-06-21 05:22:00,
2013-06-20 22:27:00,55.4,48.7,30.02,WNW,286,5.0,13.0,78,0.00,,,0.00,meteohub,2013-06-21 05:27:00,
2013-06-20 22:32:00,55.4,48.9,30.02,West,261,5.0,13.0,79,0.00,,,0.00,meteohub,2013-06-21 05:32:00,
2013-06-20 22:37:00,55.4,48.9,30.02,NW,321,8.0,11.0,79,0.00,,,0.00,meteohub,2013-06-21 05:37:00,
2013-06-20 22:42:00,55.2,48.7,30.02,SW,226,4.0,9.0,79,0.00,,,0.00,meteohub,2013-06-21 05:42:00,
2013-06-20 22:47:00,55.2,48.7,30.02,West,273,5.0,10.0,79,0.00,,,0.00,meteohub,2013-06-21 05:47:00,
2013-06-20 22:52:00,55.2,49.1,30.02,NW,313,2.0,10.0,80,0.00,,,0.00,meteohub,2013-06-21 05:52:00,
2013-06-20 22:57:00,55.2,49.1,30.02,WNW,295,5.0,10.0,80,0.00,,,0.00,meteohub,2013-06-21 05:57:00,
2013-06-20 23:02:00,55.0,48.9,30.02,NW,310,3.0,8.0,80,0.00,,,0.00,meteohub,2013-06-21 06:02:00,
2013-06-20 23:07:00,54.9,48.7,30.02,WNW,303,6.0,8.0,80,0.00,,,0.00,meteohub,2013-06-21 06:07:00,
2013-06-20 23:12:00,54.9,48.7,30.02,WNW,295,4.0,10.0,80,0.00,,,0.00,meteohub,2013-06-21 06:12:00,
2013-06-20 23:17:00,54.7,48.9,30.02,NW,304,4.0,10.0,81,0.00,,,0.00,meteohub,2013-06-21 06:17:00,
2013-06-20 23:22:00,54.7,48.9,30.02,WSW,242,5.0,10.0,81,0.00,,,0.00,meteohub,2013-06-21 06:22:00,
2013-06-20 23:27:00,54.7,48.9,30.02,West,271,5.0,10.0,81,0.00,,,0.00,meteohub,2013-06-21 06:27:00,
2013-06-20 23:32:00,54.7,48.9,30.02,WNW,299,5.0,10.0,81,0.00,,,0.00,meteohub,2013-06-21 06:32:00,
2013-06-20 23:37:00,54.7,48.9,30.02,West,268,4.0,10.0,81,0.00,,,0.00,meteohub,2013-06-21 06:37:00,
2013-06-20 23:42:00,54.7,48.9,30.02,WNW,286,6.0,10.0,81,0.00,,,0.00,meteohub,2013-06-21 06:42:00,
2013-06-20 23:47:00,54.7,48.9,30.02,West,280,3.0,8.0,81,0.00,,,0.00,meteohub,2013-06-21 06:47:00,
2013-06-20 23:52:00,54.7,48.9,30.02,WNW,285,5.0,10.0,81,0.00,,,0.00,meteohub,2013-06-21 06:52:00,
2013-06-20 23:57:00,54.7,48.9,30.01,NW,306,2.0,10.0,81,0.00,,,0.00,meteohub,2013-06-21 06:57:00,